421  
ASUS41 KRLX 280810  
RWRRLX  
REGIONAL WEATHER ROUNDUP  
NATIONAL WEATHER SERVICE CHARLESTON WV  
400 AM EDT THU OCT 28 2021  
 
NOTE: "FAIR" INDICATES FEW OR NO CLOUDS BELOW 12,000 FEET WITH NO  
SIGNIFICANT WEATHER AND/OR S TO VISIBILITY
.  
 
WVZ003-280900-  
NORTHERN PANHANDLE OF WEST VIRGINIA  
 
CITY SKY/WX TMP DP RH WIND PRES REMARKS
 
WHEELING CLOUDY 50 48 93 E8 29.87S  

 
 
WVZ009-280900-  
NORTHWEST WEST VIRGINIA  
 
CITY SKY/WX TMP DP RH WIND PRES REMARKS
 
PARKERSBURG CLOUDY 50 45 83 E6 29.87F  

 
 
WVZ006-280900-  
WESTERN WEST VIRGINIA  
 
CITY SKY/WX TMP DP RH WIND PRES REMARKS
 
HUNTINGTON CLOUDY 47 43 86 E9 29.81F  

 
 
WVZ015-280900-  
WEST CENTRAL WEST VIRGINIA  
 
CITY SKY/WX TMP DP RH WIND PRES REMARKS
 
CHARLESTON CLOUDY 46 44 93 E9 29.83F  

 
 
WVZ509-031-039-280900-  
NORTH CENTRAL WEST VIRGINIA  
 
CITY SKY/WX TMP DP RH WIND PRES REMARKS
 
MORGANTOWN PTCLDY 47 45 93 CALM 29.87F  
CLARKSBURG PTCLDY 44 43 96 CALM 29.86F  
BUCKHANNON PTCLDY 41 41 100 CALM 29.87S  

 
 
WVZ515-516-025-034-042-507-280900-  
SOUTHERN WEST VIRGINIA  
 
CITY SKY/WX TMP DP RH WIND PRES REMARKS
 
BECKLEY PTCLDY 48 44 86 SE12 29.86F  
LOGAN FAIR 43 43 100 MISG 29.80F  
PINEVILLE PTCLDY 41 40 95 MISG 29.88F  
BLUEFIELD PTCLDY 49 42 77 VRB6 29.87F  
LEWISBURG PTCLDY 39 39 99 CALM 29.92R  

 
 
WVZ525-526-280900-  
NORTHERN MOUNTAINS OF WEST VIRGINIA  
 
CITY SKY/WX TMP DP RH WIND PRES REMARKS
 
ELKINS FOG 43 41 93 S3 29.89S VSB 1/2  

 
 
WVZ502-504-052-280900-  
EASTERN PANHANDLE OF WEST VIRGINIA  
 
CITY SKY/WX TMP DP RH WIND PRES REMARKS
 
PETERSBURG FOG 41 41 100 CALM 29.95R VSB 1/4  
CUMBERLAND FOG 42 41 99 CALM 29.98R VSB 3/4  
MARTINSBURG CLEAR 42 40 92 CALM 29.91S  

 
 
OHZ075-083-KYZ101-280900-  
SOUTHEAST OHIO/NORTHEAST KENTUCKY  
 
CITY SKY/WX TMP DP RH WIND PRES REMARKS
 
ATHENS CLOUDY 50 46 87 E6 29.84F  
JACKSON CLOUDY 48 45 87 E7 29.84F  
ASHLAND CLOUDY 48 47 96 CALM 29.83F  

 
 
 
CLICK HERE TO GO TO PREVIOUS BULLETINS.

The Nexlab WV Page
The Nexlab OH Page
The Nexlab KY Page
The Nexlab VA Page Main Text Page